Terminal Aerodrome Forecast
Issued by NWS

Home | Current Version | Previous Version | Text Only | Print | Product List | Glossary On
Versions: 1 2 3 4 5 6 7 8 9 10 11 12 13 14
000
FTUS42 KTAE 280527
TAFABY
TAF
KABY 280527Z 2806/0106 15006KT P6SM BKN040
     FM280700 13005KT 5SM BR OVC012
     FM281000 14004KT 3SM BR OVC004
     FM281500 17008KT P6SM BKN015
     FM281800 19010KT P6SM SCT040 BKN200=

USA.gov is the U.S. government's official web portal to all federal, state and local government web resources and services.